Terminal Aerodrome Forecast
Issued by NWS Houston/Galveston, TX

Home | Current Version | Previous Version | Text Only | Print | Product List | Glossary On
Versions: 1 2 3 4 5 6 7 8 9 10 11 12 13 14 15 16 17 18 19 20 21 22 23 24 25 26 27 28 29 30 31 32 33 34 35 36 37 38
000
FTUS44 KHGX 032344
TAFCLL
TAF
KCLL 032344Z 0400/0424 VRB04KT P6SM VCSH SCT040 SCT060 BKN070
     FM040200 19006KT P6SM SCT035 SCT250
     FM041500 18006KT P6SM SCT040
     FM041800 20009G15KT P6SM BKN050=

USA.gov is the U.S. government's official web portal to all federal, state and local government web resources and services.